• en Belgique
  • Liste des pays
  • À 7 jours
  • Température de l'eau
  • Carte satellitaire
  • Carte météo
  • Widgets météo
  • user-avatar
    Se connecter

    Météo par heure à Brisbane

    Ce jour, 25 Février, Dimanche

    Heure Température Précipitation Vent Pression Humidité
    00:00 +25°C° 0,5 mm 2 m/s 756 mmHg 92%
    01:00 +25°C° 0,5 mm 1 m/s 755 mmHg 92%
    02:00 +25°C° 0,2 mm 1 m/s 755 mmHg 93%
    03:00 +24°C° 0,2 mm 1 m/s 755 mmHg 93%
    04:00 +24°C° 0 mm 2 m/s 755 mmHg 93%
    05:00 +25°C° 0 mm 2 m/s 755 mmHg 91%
    06:00 +25°C° 0 mm 2 m/s 755 mmHg 90%
    07:00 +26°C° 0 mm 2 m/s 755 mmHg 88%
    08:00 +28°C° 0,2 mm 2 m/s 755 mmHg 81%
    09:00 +29°C° 0,2 mm 2 m/s 755 mmHg 74%
    10:00 +31°C° 0 mm 2 m/s 755 mmHg 71%
    11:00 +31°C° 0,5 mm 3 m/s 754 mmHg 67%
    12:00 +33°C° 0,5 mm 3 m/s 754 mmHg 63%
    13:00 +34°C° 0,5 mm 3 m/s 753 mmHg 59%
    14:00 +34°C° 0,5 mm 4 m/s 753 mmHg 62%
    15:00 +33°C° 0,5 mm 4 m/s 752 mmHg 65%
    16:00 +32°C° 0 mm 4 m/s 752 mmHg 73%
    17:00 +30°C° 0,4 mm 4 m/s 752 mmHg 77%
    18:00 +29°C° 0,4 mm 4 m/s 753 mmHg 81%
    19:00 +28°C° 0,4 mm 3 m/s 753 mmHg 85%
    20:00 +27°C° 0,3 mm 3 m/s 753 mmHg 86%
    21:00 +27°C° 0,3 mm 3 m/s 753 mmHg 87%
    22:00 +26°C° 0 mm 4 m/s 754 mmHg 90%
    23:00 +26°C° 0 mm 3 m/s 753 mmHg 90%

    Demain, 26 Février, Lundi

    Heure Température Précipitation Vent Pression Humidité
    00:00 +26°C° 0 mm 3 m/s 753 mmHg 90%
    01:00 +26°C° 0 mm 3 m/s 753 mmHg 91%
    02:00 +25°C° 0 mm 2 m/s 753 mmHg 91%
    03:00 +25°C° 0 mm 2 m/s 753 mmHg 91%
    04:00 +25°C° 0 mm 2 m/s 752 mmHg 91%
    05:00 +25°C° 0 mm 2 m/s 753 mmHg 89%
    06:00 +26°C° 0 mm 2 m/s 753 mmHg 88%
    07:00 +26°C° 0 mm 1 m/s 753 mmHg 86%
    08:00 +29°C° 0 mm 2 m/s 753 mmHg 76%
    09:00 +31°C° 0 mm 2 m/s 753 mmHg 66%
    10:00 +34°C° 0 mm 2 m/s 753 mmHg 56%
    11:00 +35°C° 0 mm 2 m/s 753 mmHg 54%
    12:00 +35°C° 0 mm 3 m/s 752 mmHg 52%
    13:00 +36°C° 0 mm 3 m/s 752 mmHg 50%
    14:00 +35°C° 0,4 mm 3 m/s 752 mmHg 54%
    15:00 +35°C° 0,4 mm 3 m/s 752 mmHg 59%
    16:00 +34°C° 0,4 mm 3 m/s 752 mmHg 63%
    17:00 +31°C° 0,8 mm 3 m/s 752 mmHg 71%
    18:00 +30°C° 0,8 mm 3 m/s 753 mmHg 78%
    19:00 +28°C° 0,8 mm 3 m/s 753 mmHg 85%
    20:00 +27°C° 1,6 mm 4 m/s 754 mmHg 86%
    21:00 +26°C° 1,6 mm 5 m/s 754 mmHg 87%
    22:00 +24°C° 1,6 mm 6 m/s 755 mmHg 88%
    23:00 +24°C° 0,1 mm 6 m/s 755 mmHg 87%

    Après-demain, 27 Février, Mardi

    Heure Température Précipitation Vent Pression Humidité
    00:00 +23°C° 0,1 mm 6 m/s 755 mmHg 87%
    01:00 +23°C° 0,1 mm 6 m/s 755 mmHg 87%
    02:00 +23°C° 0 mm 5 m/s 755 mmHg 86%
    03:00 +23°C° 0 mm 5 m/s 756 mmHg 86%
    04:00 +23°C° 0 mm 5 m/s 756 mmHg 85%
    05:00 +23°C° 0 mm 5 m/s 756 mmHg 84%
    06:00 +23°C° 0 mm 5 m/s 757 mmHg 83%
    07:00 +23°C° 0 mm 5 m/s 757 mmHg 82%
    08:00 +25°C° 0 mm 5 m/s 757 mmHg 77%
    09:00 +26°C° 0 mm 6 m/s 758 mmHg 72%
    10:00 +28°C° 0 mm 6 m/s 758 mmHg 67%
    11:00 +28°C° 0 mm 6 m/s 758 mmHg 66%
    12:00 +28°C° 0 mm 6 m/s 757 mmHg 65%
    13:00 +28°C° 0 mm 6 m/s 757 mmHg 64%
    14:00 +28°C° 0 mm 6 m/s 757 mmHg 65%
    15:00 +28°C° 0 mm 6 m/s 757 mmHg 65%
    16:00 +28°C° 0 mm 6 m/s 757 mmHg 66%
    17:00 +27°C° 0 mm 6 m/s 757 mmHg 69%
    18:00 +26°C° 0 mm 5 m/s 758 mmHg 71%
    19:00 +25°C° 0 mm 5 m/s 758 mmHg 74%
    20:00 +23°C° 0 mm 5 m/s 759 mmHg 76%
    21:00 +23°C° 0 mm 5 m/s 759 mmHg 78%
    22:00 +22°C° 0 mm 4 m/s 760 mmHg 80%
    23:00 +22°C° 0 mm 4 m/s 759 mmHg 82%

    28 Février, Mercredi

    Heure Température Précipitation Vent Pression Humidité
    00:00 +21°C° 0 mm 4 m/s 759 mmHg 83%
    01:00 +21°C° 0 mm 4 m/s 759 mmHg 85%
    02:00 +21°C° 0 mm 4 m/s 759 mmHg 86%
    03:00 +20°C° 0 mm 4 m/s 759 mmHg 86%
    04:00 +20°C° 0 mm 4 m/s 758 mmHg 87%
    05:00 +20°C° 0 mm 4 m/s 759 mmHg 85%
    06:00 +21°C° 0 mm 4 m/s 759 mmHg 83%
    07:00 +21°C° 0 mm 4 m/s 759 mmHg 81%
    08:00 +23°C° 0 mm 4 m/s 760 mmHg 74%
    09:00 +26°C° 0 mm 4 m/s 760 mmHg 67%
    10:00 +28°C° 0 mm 4 m/s 760 mmHg 60%
    11:00 +29°C° 0 mm 4 m/s 759 mmHg 58%
    12:00 +30°C° 0 mm 4 m/s 759 mmHg 55%
    13:00 +32°C° 0 mm 4 m/s 758 mmHg 53%
    14:00 +30°C° 0 mm 4 m/s 758 mmHg 54%
    15:00 +30°C° 0 mm 4 m/s 757 mmHg 55%
    16:00 +30°C° 0 mm 4 m/s 757 mmHg 56%
    17:00 +28°C° 0 mm 3 m/s 757 mmHg 64%
    18:00 +27°C° 0 mm 3 m/s 758 mmHg 72%
    19:00 +25°C° 0 mm 2 m/s 758 mmHg 80%
    20:00 +25°C° 0 mm 2 m/s 759 mmHg 82%
    21:00 +24°C° 0 mm 1 m/s 759 mmHg 85%
    22:00 +23°C° 0 mm 1 m/s 760 mmHg 87%
    23:00 +23°C° 0 mm 1 m/s 759 mmHg 88%

    1 Mars, Jeudi

    Heure Température Précipitation Vent Pression Humidité
    00:00 +23°C° 0 mm 1 m/s 759 mmHg 89%
    01:00 +23°C° 0 mm 1 m/s 758 mmHg 90%
    02:00 +23°C° 0 mm 1 m/s 758 mmHg 91%
    03:00 +22°C° 0 mm 1 m/s 758 mmHg 92%
    04:00 +22°C° 0 mm 1 m/s 758 mmHg 93%
    05:00 +23°C° 0 mm 1 m/s 758 mmHg 91%
    06:00 +23°C° 0 mm 1 m/s 758 mmHg 89%
    07:00 +24°C° 0 mm 1 m/s 758 mmHg 87%
    08:00 +26°C° 0 mm 1 m/s 758 mmHg 75%
    09:00 +29°C° 0 mm 1 m/s 758 mmHg 63%
    10:00 +32°C° 0 mm 1 m/s 758 mmHg 52%
    11:00 +33°C° 0 mm 1 m/s 757 mmHg 48%
    12:00 +35°C° 0 mm 1 m/s 757 mmHg 44%
    13:00 +37°C° 0 mm 2 m/s 756 mmHg 40%
    14:00 +36°C° 0 mm 2 m/s 755 mmHg 42%
    15:00 +35°C° 0 mm 3 m/s 755 mmHg 45%
    16:00 +35°C° 0 mm 4 m/s 755 mmHg 48%
    17:00 +31°C° 0 mm 3 m/s 755 mmHg 57%
    18:00 +29°C° 0 mm 3 m/s 755 mmHg 67%
    19:00 +27°C° 0 mm 3 m/s 756 mmHg 77%
    20:00 +26°C° 0 mm 3 m/s 756 mmHg 79%
    21:00 +26°C° 0 mm 2 m/s 757 mmHg 82%
    22:00 +25°C° 0 mm 2 m/s 757 mmHg 85%
    23:00 +24°C° 0 mm 1 m/s 757 mmHg 86%

    2 Mars, Vendredi

    Heure Température Précipitation Vent Pression Humidité
    00:00 +24°C° 0 mm 1 m/s 757 mmHg 88%
    01:00 +24°C° 0 mm 1 m/s 756 mmHg 89%
    02:00 +24°C° 0 mm 1 m/s 756 mmHg 89%
    03:00 +23°C° 0 mm 1 m/s 756 mmHg 90%
    04:00 +23°C° 0 mm 1 m/s 756 mmHg 90%
    05:00 +24°C° 0 mm 1 m/s 757 mmHg 88%
    06:00 +24°C° 0 mm 2 m/s 758 mmHg 85%
    07:00 +25°C° 0 mm 2 m/s 758 mmHg 83%
    08:00 +27°C° 0 mm 2 m/s 758 mmHg 75%
    09:00 +29°C° 0 mm 3 m/s 758 mmHg 67%
    10:00 +31°C° 0 mm 3 m/s 758 mmHg 59%
    11:00 +33°C° 0 mm 3 m/s 758 mmHg 57%
    12:00 +34°C° 0 mm 4 m/s 757 mmHg 55%
    13:00 +34°C° 0 mm 4 m/s 756 mmHg 53%
    14:00 +34°C° 0 mm 4 m/s 756 mmHg 57%
    15:00 +33°C° 0 mm 4 m/s 756 mmHg 60%
    16:00 +32°C° 0 mm 4 m/s 756 mmHg 64%
    17:00 +30°C° 0 mm 4 m/s 756 mmHg 70%
    18:00 +28°C° 0 mm 4 m/s 757 mmHg 77%
    19:00 +27°C° 0 mm 4 m/s 757 mmHg 83%
    20:00 +26°C° 0 mm 4 m/s 758 mmHg 85%
    21:00 +26°C° 0 mm 3 m/s 758 mmHg 86%
    22:00 +25°C° 0 mm 3 m/s 758 mmHg 87%
    23:00 +25°C° 0,1 mm 3 m/s 758 mmHg 88%
    Voir plus